GFSMW_con_mucape_096.txt.gz
CAPE
195 352 116 1 0 2 10 0 0 0 0 0 0 0 0 31 11 16 7 3 14 45 60 49 44 19 35 25 8 0 0 0 0 0 0 0 0 0 0 0 0 0 0
462 166 72 0 0 2 2 0 0 0 0 0 0 1 7 1 8 3 9 6 6 2 29 47 51 44 32 4 0 0 0 1 2 0 14 25 9 11 2 0 0 0 0
427 184 103 0 0 2 2 12 0 2 0 5 0 10 8 1 2 8 8 12 5 7 4 43 45 38 11 11 25 3 13 5 21 5 38 85 46 51 36 7 1 0 0
483 220 124 1 0 2 4 7 0 0 0 10 8 17 7 14 7 3 6 10 9 3 38 50 62 33 47 48 40 38 43 46 34 21 31 60 97 75 4 0 2 4 0
446 274 103 38 0 3 12 9 2 0 0 5 0 0 0 27 25 12 11 11 16 7 6 8 67 74 76 58 92 74 69 79 173 88 103 45 53 32 26 9 17 15 12
379 266 140 25 0 0 6 11 6 5 0 0 0 0 0 0 1 6 15 7 8 3 0 0 85 95 48 54 71 64 87 149 208 150 150 94 73 36 19 20 12 23 15
369 241 117 8 19 0 1 5 10 3 0 0 0 0 0 0 2 0 0 2 6 3 0 0 0 0 36 43 42 61 89 165 137 130 126 147 114 87 70 55 0 0 0
448 259 151 7 36 2 1 41 12 3 1 0 0 0 0 0 1 0 7 2 1 3 8 0 0 42 31 44 74 117 132 160 176 139 125 136 136 107 101 60 59 9 1
312 305 272 42 8 2 0 1 7 9 4 0 0 0 0 0 0 2 2 14 10 2 3 1 3 4 0 51 88 109 122 168 127 157 135 138 144 192 179 131 84 58 0
291 332 315 219 33 22 0 0 0 2 1 5 0 0 0 0 3 5 4 0 0 2 7 4 11 4 18 53 81 66 116 99 68 85 134 172 175 158 165 153 140 104 37
231 400 369 420 114 43 9 6 0 0 0 2 7 9 0 0 2 2 2 2 0 0 0 0 2 2 4 5 42 48 77 86 92 106 83 107 125 143 156 116 77 13 14
245 379 414 605 407 106 14 13 0 0 0 2 2 7 7 0 2 2 1 2 7 0 0 0 25 13 14 44 51 65 75 85 75 83 114 101 126 148 150 108 37 64 76
239 446 433 615 670 400 173 32 5 0 0 0 1 2 5 4 10 19 8 10 2 16 9 1 21 30 29 35 45 38 40 50 63 69 101 88 111 109 79 42 58 76 11
19 338 472 502 706 688 428 208 41 8 0 0 0 0 5 4 0 3 5 13 17 25 20 17 21 30 41 35 30 39 36 63 85 110 102 96 66 39 54 97 67 84 91
7 12 186 381 579 725 712 432 286 86 19 0 0 30 15 36 28 12 13 20 20 4 9 14 10 25 33 33 45 70 93 87 70 52 34 43 101 79 52 78 62 55 76
5 0 6 154 427 558 782 624 397 276 137 23 9 18 38 40 44 49 45 47 50 56 61 56 61 124 34 37 32 32 33 47 51 102 69 99 99 96 95 78 63 99 31
0 0 3 56 287 592 751 766 655 468 361 198 42 41 70 61 33 34 48 49 48 60 72 53 35 30 62 15 7 3 25 45 70 91 106 83 69 79 68 79 18 5 10
51 20 31 8 11 62 610 727 785 740 545 423 195 90 70 63 52 30 29 28 39 35 39 57 28 31 36 55 56 60 53 72 137 146 136 96 106 79 64 6 12 21 6
17 0 0 0 0 0 0 609 744 668 698 512 367 176 107 48 65 27 16 19 48 45 46 43 60 56 58 54 59 70 65 244 152 104 98 56 19 6 7 7 4 0 0
0 3 0 0 0 0 8 105 607 683 601 518 423 319 205 125 81 53 58 65 109 59 47 58 71 162 132 85 163 120 124 96 34 10 14 3 10 8 12 3 11 10 1
0 0 0 0 0 0 6 63 393 686 599 535 408 319 213 185 144 119 73 63 105 49 76 134 183 115 159 145 94 64 5 5 2 5 7 13 14 8 5 0 0 0 0
0 0 0 0 0 8 31 119 295 492 529 502 365 289 266 224 166 94 66 39 34 82 82 97 150 108 81 29 5 3 5 9 8 6 2 1 0 0 0 0 0 0 0
0 0 0 0 0 0 14 44 190 290 347 385 303 229 175 115 74 40 15 19 20 23 193 89 84 26 5 0 2 3 0 0 0 0 0 0 0 0 0 0 0 0 0
0 0 0 0 0 0 5 6 5 28 51 127 137 122 91 66 22 13 12 36 20 35 28 92 18 0 0 0 0 0 0 0 0 0 0 0 0 0 0 0 0 0 0
0 0 2 0 0 0 0 0 0 0 0 0 0 1 2 5 12 18 33 26 8 10 47 0 0 0 0 0 0 0 0 0 0 0 0 0 0 0 0 0 0 0 0
0 0 0 1 8 0 0 3 0 0 0 6 8 16 20 60 62 86 70 3 3 0 0 0 0 0 0 0 0 0 0 0 0 0 0 0 0 0 0 0 0 0 0

GFSMW_con_mucape_099.txt.gz
CAPE
237 209 154 91 59 0 0 0 0 1 0 0 0 0 0 9 7 3 34 28 46 56 43 0 0 0 0 0 1 0 0 0 0 0 0 0 0 0 0 0 0 0 0
280 212 185 113 43 0 0 0 0 0 0 0 0 0 0 12 14 5 28 25 41 54 57 20 26 5 10 10 26 0 0 0 0 0 0 0 0 3 5 0 0 0 0
292 206 151 98 0 0 0 0 0 0 0 0 3 2 6 0 37 12 12 3 3 21 36 31 15 13 50 45 35 1 4 2 0 0 0 0 0 11 9 8 1 0 0
216 190 122 91 0 0 0 2 0 0 0 0 0 0 0 0 7 5 20 6 4 5 4 29 51 39 49 61 59 22 8 0 4 1 9 42 63 55 34 18 7 0 0
167 197 148 93 0 0 2 2 0 0 1 0 0 0 0 0 3 3 6 7 4 7 5 1 1 26 44 76 30 4 26 8 7 10 10 30 34 34 28 4 0 0 0
173 220 191 75 0 0 1 1 1 5 4 3 0 0 0 0 2 7 10 10 12 0 7 8 4 0 0 0 63 52 55 40 59 17 30 11 8 12 24 14 0 3 1
218 234 208 72 0 0 2 1 3 8 6 5 0 0 0 0 5 20 15 9 5 2 3 20 4 1 2 72 65 47 63 27 26 81 87 78 64 61 58 38 17 16 7
282 225 174 89 4 0 0 2 1 2 5 3 10 0 0 0 0 13 2 18 14 4 8 5 0 1 0 59 49 47 31 39 38 49 75 69 65 64 76 52 26 0 0
273 202 154 138 14 0 0 0 1 0 5 6 1 0 0 0 0 0 0 23 15 20 20 8 0 0 40 50 51 41 33 30 53 50 56 60 63 68 83 67 55 48 0
244 212 189 181 95 0 0 0 0 1 3 4 4 3 1 0 0 0 0 5 0 9 18 14 2 0 1 30 28 10 24 35 29 56 76 72 67 67 84 86 85 82 50
302 237 232 231 193 77 5 0 0 0 0 3 5 6 0 0 0 0 2 4 0 0 4 15 12 4 5 4 5 11 10 25 28 47 60 51 55 44 63 76 64 46 55
176 320 328 271 262 201 25 0 0 0 0 0 3 3 1 0 0 0 0 3 0 0 0 0 1 2 0 0 0 0 4 25 22 26 46 30 36 50 88 84 86 119 143
63 398 367 330 300 261 216 39 0 0 0 0 0 5 7 0 0 0 0 0 0 0 0 0 0 0 0 0 0 0 0 1 12 22 44 54 41 44 78 118 114 117 112
3 124 341 359 349 322 305 275 96 9 0 0 0 0 1 0 0 0 0 0 0 0 0 0 0 0 0 0 0 0 6 26 33 22 35 30 45 52 69 69 54 49 57
0 0 0 227 482 368 363 369 376 293 11 6 0 0 0 0 1 0 0 0 0 4 4 0 0 1 1 6 18 32 37 65 76 68 61 56 63 75 76 86 72 42 37
0 0 0 0 106 536 471 451 441 408 349 106 18 0 0 5 7 9 0 0 1 6 8 9 12 8 2 15 49 74 84 91 94 94 95 71 120 85 79 68 43 67 53
11 13 3 0 9 223 527 602 531 476 428 402 159 19 10 4 5 0 0 0 0 15 8 23 37 66 15 16 35 73 107 93 79 86 70 37 78 41 101 118 4 0 3
0 1 0 0 0 0 22 555 584 605 529 435 375 201 36 44 18 24 24 7 5 11 28 24 34 23 25 34 46 58 74 92 68 23 52 67 80 91 87 34 10 5 0
0 0 0 5 0 2 0 0 141 547 578 524 479 407 222 63 63 57 89 106 90 105 45 68 43 65 44 52 44 69 57 24 37 23 50 99 94 52 43 7 5 4 5
0 0 0 0 9 2 6 5 55 687 650 705 612 477 353 189 120 126 104 131 177 157 166 115 119 88 118 58 109 42 34 55 78 90 99 68 37 7 9 0 4 6 0
0 0 0 0 0 0 14 6 41 408 606 630 613 449 316 292 175 128 136 144 103 210 212 197 128 204 150 108 76 85 82 74 95 87 20 0 0 0 1 0 0 0 0
0 0 0 0 0 0 0 13 15 65 367 569 556 500 388 314 222 185 171 377 204 174 182 157 54 109 104 84 51 33 60 15 11 5 0 0 0 0 0 0 0 0 0
0 0 0 0 0 0 0 0 11 36 80 413 464 479 428 354 321 291 264 410 226 306 182 113 45 77 102 26 49 2 0 0 0 0 0 0 0 0 0 0 0 0 0
0 0 0 0 0 0 0 0 0 19 50 112 214 339 420 379 335 374 361 359 350 276 264 50 50 13 5 4 0 0 0 0 0 0 0 0 0 0 0 0 0 0 0
0 0 0 0 0 0 2 2 1 0 0 11 61 133 207 331 340 318 272 236 159 52 64 26 8 8 1 0 0 0 0 0 0 0 0 0 0 0 0 0 0 0 0
0 0 0 0 0 0 20 21 24 25 17 0 0 18 79 221 221 179 182 64 27 13 0 0 0 0 0 0 0 0 0 0 0 0 0 0 0 0 0 0 0 0 0

GFSMW_con_mucape_102.txt.gz
CAPE
215 563 371 270 130 83 7 0 0 0 1 3 3 0 10 2 25 49 3 56 9 43 23 0 0 0 0 0 0 0 0 0 0 0 0 0 0 0 0 0 2 0 0
177 396 272 181 114 124 0 0 0 0 1 2 0 0 0 16 14 22 8 55 6 61 54 0 0 0 0 0 0 0 0 0 0 0 0 0 0 1 0 0 9 2 0
123 297 240 181 193 123 0 0 0 0 0 3 0 0 0 4 8 11 2 31 27 50 71 0 0 0 0 1 0 0 0 0 0 0 0 0 0 0 0 8 23 10 0
37 288 258 215 219 77 0 0 0 0 0 1 1 0 1 0 4 11 24 49 49 50 36 5 1 0 0 17 23 15 0 0 1 0 0 3 8 3 0 7 23 1 0
49 221 281 258 187 16 0 0 0 0 0 0 1 6 0 0 0 2 5 29 37 32 45 60 100 79 51 60 62 44 15 0 0 0 0 16 61 51 55 42 21 0 0
59 161 314 266 152 25 0 0 0 0 0 0 0 5 8 0 0 2 6 2 6 13 3 7 42 70 72 38 57 72 9 0 0 0 0 1 39 40 52 49 45 28 8
57 149 335 228 137 24 0 0 0 0 0 0 1 4 8 0 0 6 2 3 2 6 12 8 26 33 26 6 55 33 18 22 18 5 22 17 20 22 26 30 50 26 21
60 184 267 243 150 9 0 0 0 0 2 0 0 0 0 1 0 7 18 4 4 3 13 6 3 9 6 13 41 0 4 40 33 39 54 56 67 60 60 49 59 43 38
160 303 310 266 136 0 0 0 0 0 1 2 0 0 0 0 0 0 7 10 23 6 6 7 5 4 7 1 73 1 44 27 35 4 78 16 26 62 52 58 70 71 7
254 336 374 270 150 26 0 0 0 0 0 5 0 0 0 0 0 0 4 12 5 3 5 4 20 16 7 11 7 1 45 30 13 2 35 28 29 60 64 44 48 46 39
244 364 411 269 180 60 0 0 0 0 2 1 2 0 0 0 0 0 0 4 0 10 20 23 22 17 0 0 4 0 10 17 17 16 17 36 32 40 29 59 53 39 37
0 134 310 295 215 178 56 0 0 0 0 0 1 2 1 2 0 0 0 0 0 3 11 14 19 18 8 0 0 5 7 17 6 4 6 26 30 24 38 43 16 17 22
0 70 138 255 229 244 197 7 0 0 0 0 4 1 2 1 0 0 0 0 0 0 0 0 0 9 0 0 2 10 10 17 31 31 41 36 37 24 24 22 30 42 44
0 11 65 172 118 101 205 207 53 0 0 0 0 4 1 1 2 0 0 0 0 0 0 0 0 0 0 0 0 0 0 0 1 0 0 0 10 18 28 34 39 90 71
2 1 2 38 106 85 106 87 178 162 60 0 0 0 0 0 3 0 0 0 0 0 0 0 0 0 0 0 0 0 0 0 0 0 0 3 10 12 13 37 44 41 27
0 0 0 0 0 36 71 100 99 109 178 163 51 0 0 0 0 0 0 0 0 0 0 1 1 0 0 0 0 0 0 1 21 22 20 32 27 25 12 16 31 50 67
0 0 1 1 12 24 104 312 266 139 175 268 253 242 22 8 22 27 17 12 7 0 1 6 10 8 5 8 7 5 27 42 50 61 59 26 20 0 18 24 4 9 18
0 1 0 0 4 1 3 30 280 193 117 181 258 287 329 80 14 13 21 19 12 6 2 0 9 15 12 18 31 29 32 36 46 40 36 37 46 38 29 14 18 6 0
0 0 0 0 0 0 0 0 48 11 155 365 323 225 292 251 188 42 13 19 26 22 22 18 34 53 62 60 71 75 23 60 48 46 57 39 22 2 9 8 1 5 12
0 0 0 0 0 0 0 0 0 42 80 166 282 305 324 212 257 189 69 61 66 29 46 59 44 59 58 65 54 39 44 38 42 66 26 17 17 38 32 0 5 2 0
0 0 0 0 0 0 0 0 0 11 254 280 357 324 332 256 181 174 185 120 144 151 118 79 54 66 69 81 39 46 94 101 88 53 64 28 2 0 0 0 0 0 0
0 0 0 0 0 0 0 0 0 0 23 243 276 334 269 316 200 125 180 162 184 215 134 110 143 211 141 100 72 60 29 25 23 12 25 0 0 0 0 0 0 0 0
0 0 0 0 0 0 0 0 0 0 0 8 158 200 238 242 271 181 142 183 224 224 201 128 95 125 101 79 40 32 3 1 1 0 0 0 0 0 0 0 0 0 0
0 0 0 0 0 0 0 0 0 0 0 0 16 61 141 204 180 203 245 270 291 252 153 157 68 18 103 25 4 1 0 0 0 0 0 0 0 0 0 0 0 0 0
0 0 0 0 0 0 0 0 0 0 0 0 0 32 113 209 231 195 258 291 307 144 43 175 32 56 23 3 0 0 0 0 0 0 0 0 0 0 0 0 0 0 0
0 0 0 0 0 0 0 0 0 1 1 0 6 1 8 49 158 227 297 315 246 266 128 11 0 0 0 0 0 0 0 0 0 0 0 0 0 0 0 0 0 0 0

GFSMW_con_mucape_105.txt.gz
CAPE
3 143 174 237 303 379 251 42 13 0 0 2 4 11 37 3 16 44 35 10 7 9 36 29 11 2 0 0 0 0 0 0 0 0 0 0 0 0 0 0 0 0 0
10 190 241 373 421 333 155 31 18 0 0 0 0 0 0 6 5 13 35 15 8 11 44 52 32 0 0 0 0 0 0 0 0 0 0 0 0 0 0 0 0 0 0
0 81 301 461 392 293 137 52 0 0 0 0 0 0 0 0 10 5 14 16 9 35 71 67 14 0 0 0 0 0 0 0 0 0 0 0 0 0 0 0 0 0 10
0 9 317 396 357 267 116 77 0 0 0 0 0 0 0 0 0 0 6 15 44 47 57 65 0 0 0 0 0 0 0 0 0 0 0 0 0 0 0 2 0 0 2
2 7 70 290 280 233 141 72 0 0 0 0 0 0 0 0 0 8 2 15 56 55 57 38 14 0 0 0 0 0 0 0 0 0 0 4 20 3 10 0 0 0 22
0 0 19 129 275 218 182 57 0 0 0 0 0 1 0 0 0 15 1 9 38 24 31 56 22 6 7 23 20 48 42 14 3 0 0 11 76 57 56 38 17 29 37
0 0 27 93 239 235 183 5 0 7 0 0 0 0 3 3 2 0 11 21 24 7 9 50 31 0 41 72 107 108 100 100 14 4 12 9 26 47 34 19 21 22 51
0 0 26 85 237 263 178 0 0 5 0 0 0 0 1 0 2 0 11 21 16 17 13 5 5 15 35 53 79 100 99 11 20 24 30 18 12 35 45 37 22 37 38
60 8 10 57 182 306 176 0 0 0 0 0 0 0 0 1 5 1 20 20 14 10 18 19 14 47 36 49 48 35 24 11 5 38 52 45 37 33 42 39 36 33 0
0 30 43 18 164 260 107 0 0 0 0 0 0 0 0 0 0 3 4 20 14 6 21 5 10 13 21 41 45 22 28 36 5 36 43 31 46 17 14 7 46 44 39
0 0 75 78 294 195 73 0 0 0 0 0 0 0 0 0 0 0 5 12 0 0 3 5 4 7 43 13 24 29 34 0 0 0 29 22 15 49 15 40 37 44 43
0 8 8 187 269 196 84 0 1 0 0 0 0 0 0 0 0 0 0 4 1 4 0 4 0 9 13 22 11 11 16 2 18 0 28 2 17 9 14 37 35 31 29
0 18 27 57 213 219 100 3 0 2 0 0 0 0 0 0 0 0 0 0 0 10 1 7 2 13 17 30 20 0 0 2 0 13 13 5 3 0 3 36 29 13 9
0 0 12 25 64 119 132 92 21 0 0 0 3 0 0 0 1 0 0 0 0 0 1 9 26 19 15 17 13 0 0 0 3 4 10 7 11 8 9 6 0 0 3
0 0 0 4 26 70 82 105 100 70 5 0 0 7 6 2 1 0 0 0 0 0 0 0 0 0 0 3 1 0 0 0 0 0 1 4 2 3 0 0 0 6 57
0 0 1 0 0 41 35 80 100 127 123 64 0 0 6 7 6 0 0 0 0 0 0 0 0 0 0 0 0 0 0 0 0 0 0 0 0 0 0 4 7 40 43
0 0 0 0 0 0 40 14 10 15 104 140 130 79 8 0 3 2 6 0 0 0 0 0 0 0 0 0 0 0 0 0 0 2 0 1 5 7 4 5 12 8 22
0 0 0 0 1 0 0 3 0 25 106 203 175 188 170 98 25 0 0 23 3 8 2 0 0 0 0 0 3 12 17 12 4 6 7 20 36 12 4 9 6 3 4
0 1 0 1 0 0 0 0 0 1 40 96 110 99 97 194 67 73 14 2 3 27 26 6 0 2 9 19 9 24 29 26 11 39 22 40 15 13 5 2 8 2 1
0 0 0 0 0 0 0 0 0 0 7 9 18 53 109 247 235 99 74 52 13 19 15 11 4 3 2 4 9 29 43 62 59 61 25 13 8 8 12 8 4 0 5
0 0 0 0 0 0 0 0 0 0 0 32 45 59 99 119 114 167 123 90 43 26 14 11 27 9 3 8 2 12 20 19 32 45 26 27 28 23 3 0 0 0 0
0 0 0 0 0 0 0 0 0 0 0 0 38 117 130 80 78 113 182 111 81 94 95 49 32 6 1 2 8 16 22 34 36 25 33 19 12 0 0 0 0 0 0
0 0 0 0 0 0 0 0 0 0 0 0 0 8 95 101 98 72 222 138 118 75 78 58 78 55 36 31 8 28 5 0 13 0 4 0 0 0 0 0 0 0 0
0 0 0 0 0 0 0 0 0 0 0 0 0 0 8 123 168 273 397 124 43 16 12 27 28 40 17 2 4 0 5 0 0 0 0 0 0 0 0 0 0 0 0
0 0 0 0 0 0 0 0 0 0 0 0 0 1 9 9 74 233 318 315 170 155 157 111 92 121 40 1 1 0 9 0 0 0 0 0 0 0 0 0 0 0 0
0 0 0 0 0 0 0 0 0 0 0 0 0 0 2 10 18 87 80 114 146 156 112 71 65 51 4 4 7 0 0 0 0 0 0 0 0 0 0 0 0 0 0

GFSMW_con_mucape_111.txt.gz
CAPE
0 0 0 0 0 35 95 192 281 569 645 399 166 30 31 8 2 8 11 5 14 48 34 6 24 32 34 23 5 25 35 0 4 0 2 5 3 9 7 14 16 12 9
0 0 0 0 2 4 73 63 198 588 583 303 71 19 32 11 6 17 16 6 16 16 27 16 17 23 38 49 10 12 24 0 0 1 3 3 2 9 10 15 15 11 4
0 0 0 0 1 4 11 84 288 667 465 245 26 0 18 3 15 40 14 4 6 20 22 22 18 26 46 35 4 4 6 0 0 0 0 7 12 3 6 10 5 1 0
0 0 0 0 0 1 73 127 471 554 390 227 50 0 2 15 26 23 24 4 7 73 6 12 30 17 23 30 15 21 3 0 0 0 0 0 0 0 0 0 0 0 0
0 0 0 0 0 1 57 115 471 471 358 191 62 1 13 28 17 8 19 10 3 18 12 7 10 19 26 3 6 7 13 0 0 0 0 0 0 0 0 0 0 0 1
0 0 0 0 0 3 0 113 441 414 342 186 87 4 3 3 20 6 0 5 15 4 11 13 7 28 4 2 1 6 5 0 0 2 0 0 0 5 39 33 4 24 12
0 0 0 0 0 0 2 15 364 413 292 171 47 11 0 1 23 3 0 0 9 3 31 24 9 3 4 6 16 21 0 0 0 0 0 11 43 86 105 150 66 74 34
0 0 0 0 0 0 6 5 297 377 266 153 13 10 13 1 30 1 14 2 2 9 6 30 14 54 54 70 18 0 0 0 0 0 0 28 73 125 126 128 128 129 86
0 0 0 0 2 0 1 7 221 324 239 167 0 3 2 2 10 3 4 0 11 6 18 3 31 94 73 82 0 0 0 0 0 0 21 69 64 111 135 122 141 104 38
0 1 2 18 45 0 82 27 139 280 228 0 0 2 1 0 2 0 5 9 4 1 13 16 45 59 71 34 1 0 0 4 25 35 80 88 88 122 91 97 81 78 50
0 0 26 96 60 7 74 41 131 248 213 4 3 2 3 0 5 2 4 8 0 6 3 13 30 17 31 23 0 0 2 0 0 50 108 68 45 79 55 53 55 51 34
0 0 1 14 101 14 177 31 191 219 46 4 1 0 5 2 0 1 3 3 13 21 11 1 4 8 7 4 0 0 0 0 0 0 60 28 35 17 22 17 2 35 34
0 0 0 6 85 145 144 160 218 117 2 4 8 0 1 0 0 0 4 5 7 7 7 12 7 1 8 0 0 3 2 1 0 0 0 0 0 0 0 0 50 25 36
0 0 0 1 162 59 225 162 127 52 0 16 7 0 0 0 4 4 1 9 12 9 8 8 4 3 4 1 8 6 1 0 0 0 0 0 0 0 3 5 0 32 13
0 0 1 10 1 16 106 102 89 65 39 0 2 2 0 0 2 2 5 3 2 5 0 8 7 0 1 16 10 15 17 2 6 0 2 25 3 0 15 0 0 0 17
0 0 4 0 14 8 4 17 33 40 42 48 39 8 0 2 1 1 6 5 6 2 0 9 4 7 0 0 1 5 18 10 28 3 5 47 14 9 8 9 6 0 1
0 0 0 0 0 0 1 2 12 13 21 29 60 63 47 23 2 0 2 2 1 3 3 4 11 8 10 0 3 5 1 22 23 4 28 12 8 12 11 10 11 9 8
0 0 0 0 0 0 0 0 0 18 26 27 23 42 34 69 58 28 4 0 3 2 2 2 4 2 1 7 9 12 13 11 6 4 10 6 0 8 12 8 4 2 5
0 0 0 0 0 0 0 0 0 2 27 23 20 24 37 51 56 90 72 32 0 0 2 2 2 3 6 0 0 1 1 3 3 9 17 15 14 17 11 12 12 12 8
0 0 0 0 0 0 0 0 0 0 0 7 33 24 39 19 34 41 48 53 38 19 10 6 2 1 1 3 5 2 6 10 7 11 9 8 12 14 19 15 3 0 0
0 0 0 0 0 0 0 0 0 0 0 0 0 0 0 0 4 2 17 27 30 31 11 2 10 13 7 1 1 1 4 11 23 7 8 5 10 10 6 7 2 2 1
0 0 0 0 0 0 0 0 0 0 0 0 0 0 0 0 9 3 9 25 78 237 17 4 16 8 3 1 0 3 2 9 19 18 14 0 2 2 0 2 1 1 0
0 0 0 0 0 0 0 0 0 0 0 0 0 0 0 0 0 4 13 60 13 29 212 49 7 34 34 73 48 54 31 15 3 0 0 0 1 1 0 0 0 0 0
0 0 0 0 0 0 0 0 0 0 0 0 0 0 0 1 2 7 7 23 56 35 55 129 45 37 26 23 7 12 5 23 13 5 1 0 0 0 0 0 0 0 0
0 0 0 0 0 0 0 0 0 0 0 0 0 0 0 0 2 4 8 8 21 74 118 135 106 100 65 65 6 18 15 13 9 4 5 5 0 0 0 0 0 0 0
0 0 0 0 0 0 0 0 0 0 0 0 0 0 0 0 0 4 6 10 10 15 68 85 66 46 0 0 12 1 23 4 4 0 0 0 0 0 0 0 0 0 0

GFSMW_con_mucape_114.txt.gz
CAPE
0 0 0 0 74 74 133 586 978 1374 917 588 569 661 555 274 295 284 15 3 8 53 9 32 98 61 52 227 147 228 204 180 162 119 80 50 35 32 19 17 17 22 30
0 0 0 0 211 300 420 534 854 1293 845 503 805 582 306 99 30 57 59 32 51 3 16 19 58 56 60 94 54 181 204 172 192 106 73 38 51 44 33 12 15 23 12
0 0 0 0 65 400 585 605 827 1180 853 1068 581 677 494 137 281 181 139 31 7 21 15 3 25 36 51 33 13 129 167 137 181 155 34 17 26 34 29 19 14 12 7
0 0 0 0 11 318 542 501 762 854 863 1040 690 595 396 157 152 175 148 61 93 63 6 19 26 36 44 49 22 16 68 162 125 121 20 8 14 31 30 20 14 6 5
2 63 3 0 0 260 408 147 449 568 789 957 719 455 154 132 104 214 210 207 79 29 9 38 44 28 7 38 33 31 24 74 203 143 26 44 44 58 4 2 5 3 6
19 69 54 0 6 411 76 46 330 673 442 505 435 272 115 42 92 97 163 142 48 20 17 22 22 43 28 4 33 20 17 153 200 172 83 48 39 50 4 3 3 3 33
178 189 153 103 99 280 4 231 759 422 517 506 387 244 110 4 6 14 65 51 1 3 14 1 10 13 5 1 8 41 13 99 191 165 133 24 42 0 1 10 17 18 74
395 304 222 325 166 3 6 57 500 230 485 450 371 221 21 10 18 70 42 13 1 2 2 9 6 7 14 3 6 33 9 27 132 231 138 64 51 60 57 61 125 172 131
529 438 277 238 139 3 2 2 335 200 434 408 343 192 10 15 15 68 30 3 0 8 6 2 10 13 15 8 15 3 17 17 49 202 274 153 110 203 126 137 145 144 119
268 194 149 17 6 0 0 3 168 144 371 384 295 21 3 19 22 59 6 1 2 0 5 1 11 10 25 7 12 10 12 51 61 16 14 20 65 126 175 205 182 146 125
181 60 5 0 0 1 36 2 37 52 336 390 266 9 8 16 21 34 19 4 2 12 0 0 1 34 36 44 42 29 10 4 1 0 35 85 70 124 153 207 217 150 109
38 2 0 0 3 2 72 294 60 431 290 292 13 0 13 25 19 18 1 2 0 2 0 0 3 9 55 64 47 0 0 0 0 28 22 38 48 112 133 170 164 177 140
2 0 0 0 1 120 31 77 139 129 248 23 1 2 11 14 17 31 18 2 1 7 2 9 6 26 27 1 0 0 0 2 0 0 0 3 7 84 87 104 79 70 27
20 0 0 0 12 14 256 119 195 190 132 7 3 14 18 30 17 35 20 1 1 6 8 0 11 6 26 5 0 0 0 2 1 2 0 0 0 0 36 17 0 0 0
29 1 0 0 5 48 324 227 263 114 21 0 18 23 33 28 9 22 25 25 0 4 12 2 10 16 3 19 2 2 3 4 3 2 0 0 1 1 0 1 0 0 0
0 0 0 0 0 22 115 364 223 65 1 0 23 27 24 17 18 21 10 3 23 32 33 1 6 0 4 12 1 2 3 0 0 0 3 0 0 0 0 0 0 1 3
0 0 0 0 0 0 0 55 50 12 25 23 20 6 2 12 48 16 11 11 0 11 1 1 1 2 2 0 5 2 0 0 0 22 8 8 1 1 4 0 0 7 1
0 0 0 0 0 0 0 0 0 0 0 24 35 41 17 14 3 8 9 19 20 7 1 1 1 1 1 2 5 0 0 0 4 8 6 0 4 10 14 14 10 5 6
0 0 0 0 0 0 0 0 0 0 0 4 10 33 36 62 56 62 30 3 24 17 2 2 2 1 0 2 0 1 0 0 3 0 8 5 4 3 2 8 8 6 3
2 0 0 0 0 0 0 0 0 2 0 0 0 36 33 47 59 64 94 79 46 16 1 0 4 4 4 0 0 0 3 4 7 12 5 7 5 7 7 5 5 5 6
0 0 0 0 0 0 0 0 0 0 0 0 0 0 6 3 15 51 51 60 96 101 15 5 7 13 4 5 4 5 5 2 3 2 3 2 1 7 7 15 21 15 14
0 0 0 0 0 0 0 0 0 0 0 0 0 0 0 0 0 2 24 20 72 141 48 26 55 12 6 14 0 0 1 0 10 12 14 15 11 16 8 6 5 5 3
0 0 0 0 0 0 0 0 0 0 0 0 0 0 0 0 0 0 7 1 3 84 126 131 71 34 23 1 0 6 4 1 4 4 3 4 4 2 2 0 0 0 0
0 0 0 0 0 0 0 0 0 0 0 0 0 0 0 0 0 1 5 8 5 58 62 65 148 146 128 56 38 38 26 21 12 24 18 0 0 0 1 0 0 0 0
0 0 0 0 0 0 0 0 0 0 0 0 0 0 0 0 0 0 3 5 11 7 34 106 93 130 128 109 89 34 62 28 0 6 0 7 0 1 0 0 0 0 0
0 0 0 0 0 0 0 0 0 0 0 0 0 0 0 0 0 0 1 4 4 10 13 21 46 86 93 53 9 21 0 0 0 0 0 1 0 0 0 0 0 0 0

GFSMW_con_mucape_120.txt.gz
CAPE
0 1 0 0 0 0 239 247 1208 1833 2296 2364 2170 1829 1653 1408 1243 1179 1008 744 982 814 694 459 301 250 203 63 31 21 24 16 14 7 29 66 39 38 0 12 1 0 0
0 3 6 15 14 2 132 370 306 1701 2010 2269 2112 1730 1598 1247 1183 1225 1060 1094 811 715 512 451 275 198 181 93 33 13 23 33 10 24 0 1 22 47 13 12 16 3 0
0 0 0 0 23 55 555 342 362 769 1674 2130 1934 1569 1451 964 917 1139 961 549 670 535 320 394 160 105 128 107 29 18 33 41 16 17 2 0 0 5 35 7 3 19 2
0 0 0 0 0 3 518 557 453 631 1419 1841 1675 1242 928 1017 873 710 557 363 270 226 313 189 319 31 4 5 6 31 13 38 6 25 6 34 11 0 9 9 13 26 4
0 0 0 0 0 2 425 513 643 747 1559 1613 1528 1011 1099 944 1236 836 416 237 264 158 20 32 28 31 8 5 14 36 6 21 22 0 0 43 65 0 3 0 6 22 6
15 8 1 8 41 1195 1037 1302 1073 859 1382 1372 1238 1060 1297 1047 743 720 591 377 254 234 87 3 199 25 0 0 2 15 37 39 14 3 4 4 55 20 0 0 0 0 1
150 142 167 323 249 1052 1439 1185 959 946 1376 1428 1229 1271 1292 1422 1034 607 557 482 427 325 185 4 0 24 0 1 45 2 12 2 16 31 31 37 93 58 40 8 0 0 0
504 597 729 753 746 1080 999 685 325 597 1196 1324 1276 1273 1370 1271 1032 715 470 421 315 366 338 54 24 138 0 10 7 5 5 18 23 31 47 57 89 97 65 72 16 0 0
585 793 689 532 405 284 313 187 3 134 703 877 970 1029 1363 1256 1188 519 339 321 252 260 45 88 94 7 5 17 19 14 10 36 21 28 39 11 54 134 142 111 62 16 22
639 493 234 77 6 1 1 5 5 195 324 646 721 1264 1110 1062 943 410 243 279 262 128 18 0 1 10 0 13 5 2 3 10 27 30 22 15 38 80 130 169 184 43 60
434 112 13 2 4 46 6 11 28 65 466 390 619 1056 1164 1015 846 299 296 244 226 6 0 0 0 0 1 0 8 4 8 22 43 26 33 9 4 1 92 129 156 133 70
244 1 3 0 0 0 0 7 2 22 74 257 687 535 932 848 718 521 253 144 5 9 0 0 0 0 0 1 1 7 4 7 1 12 37 35 3 0 41 91 111 112 89
35 0 0 0 0 0 2 1 0 4 36 395 698 531 595 517 392 470 154 77 4 3 0 0 0 0 0 0 1 4 14 0 20 31 25 30 0 0 11 42 47 59 70
23 2 0 0 0 0 0 4 125 93 146 240 317 590 635 666 404 171 80 4 2 1 3 0 0 0 0 2 1 3 3 0 49 9 19 7 5 0 47 11 46 22 29
57 2 0 0 0 0 0 0 32 20 51 102 99 174 356 412 298 39 68 3 0 0 0 0 0 0 0 0 1 9 10 0 34 32 22 29 39 47 45 17 59 43 40
15 0 0 0 0 0 0 0 6 67 32 130 161 124 206 326 84 35 94 24 7 0 5 0 0 0 1 6 0 0 2 1 2 0 0 0 39 0 53 79 61 58 39
5 0 0 0 0 0 0 0 0 0 4 64 60 69 192 132 23 38 36 24 19 5 2 2 2 0 8 20 9 1 3 2 0 0 0 0 0 0 0 0 0 0 2
3 7 0 0 0 0 0 0 0 0 0 0 3 96 23 55 9 12 17 32 15 26 6 3 5 2 4 13 12 11 12 3 2 3 0 0 0 0 21 1 0 8 6
29 29 0 0 0 0 0 0 0 0 0 0 1 1 26 19 12 12 14 40 32 19 15 24 7 4 3 14 11 12 6 6 14 26 21 6 2 7 15 16 6 22 21
4 0 0 0 0 0 0 0 0 0 0 0 0 0 0 27 27 30 29 33 28 21 10 5 14 1 8 9 2 0 5 9 14 16 17 19 4 4 20 0 6 9 13
2 0 0 0 0 0 0 0 0 0 0 0 0 0 2 0 1 28 85 84 50 46 32 18 10 14 5 7 3 1 3 7 6 7 12 13 13 6 10 10 25 15 19
0 0 0 0 0 0 0 0 0 0 0 0 0 0 0 0 0 0 3 93 49 59 36 31 24 2 3 1 1 8 3 4 10 7 8 9 11 18 13 14 17 2 3
0 0 0 0 0 0 0 0 0 0 0 0 0 0 0 0 0 0 0 39 68 65 76 83 66 89 143 46 18 1 1 0 1 11 7 9 18 14 23 18 3 3 2
0 0 0 0 0 0 0 0 0 0 0 0 0 0 0 0 0 0 0 0 42 4 0 78 92 75 77 58 112 18 21 4 3 1 14 11 10 9 1 4 4 2 1
0 0 0 0 0 0 0 0 0 0 0 0 0 0 0 0 0 0 0 0 0 6 1 0 0 11 0 4 1 0 0 0 1 1 3 1 1 0 0 0 0 0 0
0 0 0 0 0 0 0 0 0 0 0 0 0 0 0 0 0 0 0 0 0 17 11 8 0 9 6 26 5 5 22 34 12 4 1 7 1 5 0 0 0 0 0

GFSMW_con_mucape_123.txt.gz
CAPE
0 0 0 0 0 0 0 1392 1845 2039 2452 2359 2310 2169 1998 1409 1478 1517 1240 1215 1459 1225 868 600 464 346 214 44 11 18 15 7 4 26 35 29 22 0 5 0 0 0 0
0 0 0 0 0 0 0 255 1580 2088 2243 2337 2187 2108 1963 1575 1359 1494 1262 969 1280 1243 909 578 483 350 186 104 65 21 26 14 8 1 1 23 0 1 0 0 0 0 0
0 0 0 0 0 0 1 409 1148 1915 2094 2318 2288 2094 1932 1679 1533 1363 1170 1444 1173 1282 807 623 415 320 242 153 78 32 20 20 1 14 14 23 3 0 0 0 3 1 0
0 0 0 6 0 0 7 114 888 1737 1978 2184 2299 2134 1873 1634 1576 1087 1151 1525 1325 1188 1046 556 438 307 260 120 68 60 42 20 13 13 14 4 10 13 4 0 2 10 2
0 0 0 0 2 0 49 28 49 1312 1671 2187 2217 2117 1842 1633 1466 896 1065 904 992 959 854 539 417 231 194 84 68 202 57 49 40 34 2 20 1 9 3 0 0 8 4
0 0 0 5 150 3 131 153 186 425 1539 1947 2125 2056 1888 1669 936 1069 955 935 954 823 722 215 498 547 112 68 99 48 34 47 27 17 22 12 20 5 2 0 0 0 1
9 215 401 358 995 773 584 630 692 1308 1462 1532 1755 1920 1832 1527 998 684 615 892 695 393 615 299 38 330 289 45 139 102 43 28 32 19 8 16 26 2 2 9 0 0 0
819 680 669 908 868 867 908 915 856 748 1271 1295 1446 1556 1497 1186 1041 978 743 661 566 254 148 208 32 20 83 190 99 85 12 4 23 27 21 9 15 19 22 8 1 0 0
795 803 665 557 648 624 491 412 444 391 1005 1471 1435 1230 1167 1099 1352 1289 905 645 547 312 148 112 63 36 14 29 59 11 10 13 4 30 1 17 7 21 47 34 24 4 0
757 612 365 195 117 176 116 56 0 0 167 1248 1406 1139 1266 1288 1015 1024 753 848 633 490 252 295 207 121 151 40 12 19 31 38 35 14 21 14 13 42 61 54 42 35 13
566 191 59 28 37 7 0 0 0 2 7 721 665 954 1098 1135 1095 959 901 820 512 272 228 54 80 9 11 21 19 2 0 8 17 14 21 14 4 42 50 45 62 46 44
182 84 2 3 4 0 1 2 3 1 1 6 27 205 922 1135 971 982 927 718 247 217 133 139 16 12 27 5 1 0 11 5 11 2 10 15 5 0 38 36 61 46 27
43 60 13 3 1 0 1 1 1 4 2 32 30 127 503 989 889 778 507 578 408 235 1 11 0 0 0 0 0 1 3 10 8 7 19 35 11 0 2 37 39 63 20
19 0 0 0 0 0 0 0 1 3 3 12 39 395 246 568 494 523 699 404 326 99 1 2 1 0 0 0 0 0 5 8 3 45 48 40 35 7 25 14 1 27 30
0 0 0 0 0 0 0 0 0 8 11 41 88 47 238 387 433 512 516 428 208 1 2 4 12 0 0 0 0 5 2 0 8 47 25 7 10 12 13 15 0 0 0
9 0 0 0 0 0 0 0 0 0 11 34 15 21 123 78 151 281 175 376 107 1 0 6 4 5 0 0 6 0 1 0 40 45 0 37 41 39 11 19 0 33 0
2 0 0 0 0 0 0 0 0 0 0 4 19 26 12 15 183 167 481 267 58 6 1 3 1 3 0 4 7 4 1 1 3 0 7 14 18 18 0 62 5 19 0
0 2 3 0 0 0 0 0 0 0 0 0 2 1 14 13 22 44 63 66 37 13 5 5 5 7 1 8 17 8 10 7 0 0 1 5 17 31 17 4 15 0 0
0 3 0 4 0 0 0 0 0 0 0 0 0 0 0 3 7 13 11 47 28 53 18 21 15 21 5 7 4 13 26 24 11 0 3 0 6 0 0 0 0 0 0
1 11 7 0 0 0 0 0 0 0 0 0 0 0 0 0 0 10 7 6 36 19 27 42 30 26 7 2 13 13 21 16 15 15 22 9 3 5 10 1 15 7 9
5 1 0 0 0 0 0 0 0 0 0 0 0 0 0 1 2 1 5 8 18 32 66 42 57 32 9 6 14 1 10 9 21 6 19 26 18 13 17 13 8 9 20
0 0 0 0 0 0 0 0 0 0 0 0 0 0 0 0 1 0 2 0 26 42 37 64 53 51 19 9 3 6 9 4 2 6 9 8 19 20 17 14 20 9 9
0 0 0 0 0 0 0 0 0 0 0 0 0 0 0 0 0 0 0 0 1 0 24 31 100 62 55 10 22 20 16 17 11 5 5 7 2 19 13 14 23 24 1
0 0 0 0 0 0 0 0 0 0 0 0 0 0 0 0 0 0 0 0 2 0 0 0 2 3 97 62 80 68 6 7 8 0 9 12 13 18 19 7 11 10 10
0 0 0 0 0 0 0 0 0 0 0 0 0 0 0 0 0 0 0 2 0 0 0 0 5 1 52 20 56 21 27 0 0 0 0 0 0 0 0 1 0 0 0
0 0 0 0 0 0 0 0 0 0 0 0 0 0 0 0 0 0 0 0 1 0 0 0 0 0 0 0 0 0 0 0 0 0 0 0 2 0 3 0 6 2 5

GFSMW_con_mucape_126.txt.gz
CAPE
0 0 0 0 0 0 0 1135 1617 1990 2256 2250 2190 2068 1950 1725 1755 1747 1806 1705 1459 1294 1043 762 609 308 291 87 49 45 29 2 27 48 17 9 18 44 20 6 0 0 0
0 0 0 0 0 0 0 525 1456 1766 2252 2238 2190 2021 2014 1776 1888 1807 1754 1666 1542 1286 1066 748 531 311 219 136 120 91 27 13 15 16 21 7 0 29 0 0 0 0 0
0 0 0 0 0 0 0 0 1267 1743 2249 2234 2095 2026 1965 1784 1791 1662 1624 1483 1304 1397 1199 1391 895 527 427 283 214 182 54 15 15 4 10 8 0 0 0 1 12 0 0
0 0 0 0 0 0 0 0 1104 1744 2230 2194 2051 2076 1883 1860 1849 1681 1537 1440 1018 1541 1500 1093 1257 928 450 686 325 187 89 43 61 11 0 6 3 5 0 0 1 7 0
0 0 0 0 0 0 0 218 1260 1828 2148 2251 2095 2069 1859 1673 1612 1504 1434 1290 907 1534 1279 1447 1161 646 515 351 304 164 182 118 82 66 26 8 23 16 76 16 1 2 0
0 0 0 0 0 0 0 235 1273 1818 2085 2276 2164 1995 1873 1684 1646 1436 1551 1432 1113 1180 1194 1149 1061 982 409 346 320 221 285 154 309 141 43 22 27 8 11 5 7 0 1
0 0 9 188 191 127 159 306 931 1678 1996 2140 2192 2052 1944 1856 1651 1499 1509 1083 737 1175 1343 972 762 760 578 550 363 255 81 122 126 85 85 61 55 19 19 0 0 2 5
413 368 492 610 692 619 566 774 1105 1325 1725 2011 2088 2141 2053 1902 1736 1650 1351 1091 512 820 816 1033 792 599 637 341 196 353 72 66 45 100 71 73 41 54 11 7 0 0 0
833 953 1080 1066 976 939 854 750 846 1183 1507 1672 1994 2003 1909 1811 1636 1793 1569 900 614 605 651 710 633 372 277 196 205 66 39 110 31 34 54 59 78 60 17 18 13 0 0
829 939 922 912 839 838 788 753 713 716 913 1180 1359 1394 1391 1259 1503 1362 1090 1041 941 681 747 415 136 39 13 19 41 198 38 24 104 58 41 61 48 51 30 24 15 0 0
297 305 184 120 140 117 196 103 112 71 73 661 871 1164 1240 1258 1191 1187 1420 1299 883 731 794 605 207 66 67 101 69 25 12 25 39 61 51 22 9 7 28 10 9 24 27
94 117 38 19 0 1 13 36 64 0 0 24 673 838 964 1039 888 1013 1001 781 1089 640 627 417 464 107 286 119 42 42 39 28 17 36 52 44 29 1 11 26 12 0 35
52 47 1 1 0 0 0 3 4 5 7 9 7 268 805 641 499 587 757 831 713 648 852 323 278 98 70 157 57 12 12 14 28 22 8 23 6 2 12 31 7 2 37
12 2 1 2 3 0 0 1 0 5 3 23 19 29 130 272 437 132 445 497 516 699 823 221 235 10 0 1 2 0 0 4 9 15 10 5 11 8 22 1 7 19 28
0 0 0 1 0 0 0 0 2 0 1 20 32 40 59 36 299 359 354 354 291 301 716 122 109 5 6 4 0 0 0 0 15 12 10 2 44 55 46 37 3 0 1
0 0 0 0 0 0 0 0 0 0 1 18 19 17 23 107 134 114 171 129 94 281 494 379 58 3 22 0 0 0 0 0 1 0 0 1 45 25 35 24 1 0 0
0 0 0 0 0 0 0 0 0 0 0 0 12 31 20 15 31 19 24 66 32 80 365 64 1 17 6 0 1 0 0 10 3 0 1 0 0 12 28 38 30 15 23
0 0 0 2 0 0 0 0 0 0 0 0 0 1 29 23 20 27 40 33 52 57 27 20 0 8 3 0 1 2 7 13 5 0 12 1 1 25 0 1 34 0 0
0 1 0 0 2 0 0 0 0 0 0 0 0 0 0 8 17 32 33 38 27 73 23 2 3 11 8 2 0 2 3 14 11 5 0 0 6 0 3 7 0 0 0
0 1 0 8 0 0 0 0 0 0 0 0 0 0 0 0 0 5 7 8 42 44 10 17 4 11 6 7 3 6 6 14 10 24 6 0 5 4 1 13 0 0 0
0 5 0 1 0 0 0 0 0 0 0 0 0 0 0 0 0 2 5 9 1 6 38 55 29 30 30 16 8 2 14 11 17 11 8 7 12 2 1 0 0 12 0
0 0 0 0 0 0 0 0 0 0 0 0 0 0 0 0 0 0 0 0 29 5 13 5 11 43 29 17 20 14 11 8 18 15 13 27 18 10 12 6 19 13 2
0 0 0 0 0 0 0 0 0 0 0 0 0 0 0 0 0 0 0 0 0 7 9 6 6 0 23 13 18 24 25 25 12 8 14 18 16 12 15 9 7 2 5
0 0 0 0 0 0 0 0 0 0 0 0 0 0 0 0 0 0 0 0 0 0 0 0 2 0 42 31 40 41 10 4 9 12 19 11 7 6 15 21 5 1 1
0 0 0 0 0 0 0 0 0 0 0 0 0 0 0 0 0 0 0 0 0 1 0 0 0 0 20 0 22 4 3 19 21 15 1 3 6 0 0 2 4 6 0
0 0 0 0 0 0 0 0 0 0 0 0 0 0 0 0 0 0 0 0 0 1 0 0 0 0 0 0 0 0 0 0 18 8 0 0 0 0 0 0 0 0 0

GFSMW_con_mucape_129.txt.gz
CAPE
0 0 0 0 0 0 1 587 1741 2021 2135 2099 1988 1820 1693 1510 1096 1135 1028 1079 1242 1170 1003 852 694 613 440 309 133 38 0 7 21 35 19 10 7 37 29 35 44 14 0
0 0 0 0 0 0 0 3 1051 1879 2115 2079 2048 1866 1780 1783 1551 1202 1364 1512 1452 1370 1221 1123 1004 783 524 367 207 48 1 10 26 0 20 9 2 14 18 21 39 5 3
0 0 0 0 0 0 0 1 402 1498 2034 2153 2136 1917 1807 1746 1757 1680 1749 1791 1833 1726 1409 1330 1171 818 618 398 241 114 35 45 20 7 14 19 2 13 4 15 26 3 0
0 0 0 0 0 0 0 0 111 1268 1918 2208 2041 1892 1856 1649 1540 1565 1709 1796 1910 1740 1604 1303 1147 878 619 390 344 203 175 138 199 14 2 10 8 1 2 5 2 0 0
0 0 0 0 0 0 0 0 5 1088 1782 2144 1995 2018 1837 1701 1568 1554 1579 1868 1910 1796 1596 1152 1536 833 926 911 524 214 150 160 246 93 14 9 8 41 30 27 18 2 0
0 0 0 0 0 0 0 0 0 1112 1791 2113 2022 1899 1859 1803 1644 1468 1584 1617 1802 1621 1343 977 1199 1111 990 1125 749 419 214 224 184 146 41 74 39 15 29 7 5 10 1
0 0 0 0 58 1 35 70 1106 1694 2088 2099 1990 1918 1908 1913 1747 1487 1484 1673 1555 1538 1078 920 1562 1127 939 1042 746 530 98 166 117 78 101 98 60 40 101 115 39 37 1
509 362 299 201 285 253 437 870 1504 1997 2238 2246 2061 1993 2010 1907 1768 1574 1323 1350 1468 1486 1063 1030 1333 951 848 737 788 512 277 150 166 213 64 93 140 53 50 134 50 7 0
426 355 318 224 360 858 1030 1093 1539 1941 2124 2335 1882 1924 1932 1824 1610 1486 1541 1445 1479 1570 973 723 860 742 923 732 828 659 177 85 93 89 70 41 64 46 55 52 32 16 0
457 547 603 566 570 726 926 1341 1398 1565 1553 1432 1631 1875 2003 1885 1785 1778 1674 1612 1594 1301 589 562 904 732 701 517 496 305 164 139 146 76 22 43 33 36 55 56 72 18 33
14 159 319 478 520 594 637 717 800 1058 1018 1024 1263 1343 1456 1669 1713 1619 1609 1649 1603 1160 747 626 499 584 647 49 74 56 46 45 61 72 39 31 15 45 33 46 55 39 32
0 1 11 16 28 40 42 118 145 154 181 565 661 859 1034 951 1122 1152 1058 1315 1152 1249 1041 600 473 368 296 79 28 39 119 38 30 28 40 37 47 59 52 29 22 29 13
7 2 0 0 3 0 0 6 9 27 125 63 156 333 686 693 813 990 929 1111 1200 1245 788 612 346 459 444 338 113 135 149 87 34 44 47 28 40 59 43 45 5 3 22
6 0 1 0 8 1 0 0 2 19 63 69 53 63 135 239 415 487 500 514 657 672 661 503 479 331 135 146 40 41 103 64 13 8 19 23 40 22 31 27 14 10 22
0 3 6 1 2 0 0 11 29 54 61 58 61 92 67 105 116 190 238 399 462 310 483 361 460 394 96 73 31 1 7 3 0 0 0 2 17 12 7 3 7 31 6
0 0 0 0 0 0 0 0 0 0 54 41 73 41 66 51 65 73 141 119 106 76 200 138 93 39 351 25 1 0 0 1 0 0 0 0 0 8 13 2 39 23 0
0 0 0 0 0 0 0 0 0 0 0 0 12 17 18 39 71 62 51 79 54 67 49 75 26 98 51 7 0 0 1 4 0 0 0 0 0 0 1 20 0 28 29
0 0 0 0 1 1 0 0 0 0 0 0 0 0 4 11 27 24 19 35 43 38 55 22 12 15 8 0 0 0 11 8 0 2 3 1 0 0 0 0 24 45 14
0 5 0 0 0 0 0 0 0 0 0 0 0 0 0 1 2 24 17 8 20 27 36 51 23 4 0 0 12 4 5 0 6 9 8 11 1 0 0 0 9 1 2
2 2 0 0 0 0 0 0 0 0 0 0 0 0 0 0 0 0 9 18 20 46 68 40 23 6 7 0 10 11 1 6 6 12 13 9 12 0 3 1 7 0 0
0 0 0 3 0 0 0 0 0 0 0 0 0 0 0 0 0 0 0 0 7 17 17 30 8 9 3 0 0 11 9 14 29 14 34 7 6 2 0 0 0 4 11
0 0 0 1 0 0 0 0 0 0 0 0 0 0 0 0 0 0 0 0 0 2 13 13 5 22 31 20 13 9 3 6 6 10 13 2 11 4 7 0 0 6 0
0 0 0 0 0 0 0 0 0 0 0 0 0 0 0 0 0 0 0 0 0 0 8 12 2 10 10 26 10 6 11 6 9 5 9 9 15 18 4 0 1 12 11
0 0 0 0 0 0 0 0 0 0 0 0 0 0 0 0 0 0 0 0 0 0 0 10 9 2 6 0 1 28 33 42 36 23 22 12 8 12 12 7 5 15 7
0 0 0 0 0 0 0 0 0 0 0 0 0 0 0 0 0 0 0 0 0 0 0 0 1 15 3 4 0 0 0 7 7 12 11 16 19 18 16 9 12 8 1
0 0 0 0 0 0 0 0 0 0 0 0 0 0 0 0 0 0 0 0 0 0 0 0 0 0 0 0 0 0 0 0 1 0 2 8 10 4 0 2 3 0 0

GFSMW_con_mucape_132.txt.gz
CAPE
0 0 0 0 0 0 0 0 1565 1960 1928 1911 1766 1634 1256 855 976 965 1160 1222 1510 1021 814 639 477 412 205 305 81 49 8 0 5 18 18 6 0 18 17 10 22 23 59
0 0 0 0 0 0 0 0 906 1951 2119 2046 1906 1865 1773 1229 995 877 992 1089 1381 1236 860 853 713 577 313 405 330 127 40 10 0 2 6 0 1 1 2 11 20 29 59
0 0 0 0 0 0 0 0 0 1530 2154 2178 2109 1982 1894 1562 1318 1199 1117 1405 1332 1110 855 963 862 742 571 590 465 288 162 76 0 1 13 8 0 1 0 3 8 37 36
0 0 0 0 0 0 0 0 0 111 1819 2171 2121 1873 1830 1660 1470 1466 1369 1620 1492 970 1090 1157 1046 942 861 778 579 413 285 173 30 11 21 16 5 0 0 0 0 14 32
0 0 0 0 0 0 0 0 0 0 735 2065 2095 1896 1781 1708 1642 1597 1461 1496 1516 1190 1462 1511 1434 1200 1077 630 534 498 312 219 104 42 31 23 58 10 6 2 0 11 9
0 0 0 0 0 0 0 0 0 0 614 1930 2116 1938 1807 1720 1681 1625 1608 2150 1995 1498 1831 1745 1662 1344 1110 1145 729 423 337 289 155 131 57 67 103 10 17 13 3 9 18
408 275 188 61 0 0 0 0 0 1 811 1852 2199 2043 1851 1743 1645 1616 1548 1915 1841 1310 1678 1515 1583 1131 1062 957 741 645 658 359 135 107 65 97 73 49 38 41 29 28 19
286 426 383 242 200 217 369 424 639 785 1204 2038 2239 2107 1902 1817 1699 1579 1454 1187 1132 1243 1574 1611 1595 1239 698 918 783 1011 868 593 545 68 89 112 94 71 82 46 51 24 20
190 421 431 401 359 452 699 1184 1406 1911 2273 2364 2261 2046 2010 1856 1729 1589 1522 1311 1413 1512 1553 1663 1362 1022 738 748 920 1199 789 795 569 233 25 60 88 57 45 52 60 70 33
123 220 354 355 588 331 563 734 791 1427 1901 1979 1901 1886 1939 1859 1467 1389 1383 1132 1043 1216 1149 1295 1295 881 774 720 621 649 665 497 628 331 54 28 53 85 48 45 51 39 60
0 183 328 440 515 523 513 591 164 508 837 1058 1066 1229 1246 1139 934 963 981 1198 1235 1232 1184 1189 1154 750 644 509 494 500 600 606 352 151 38 63 44 35 21 35 32 37 31
0 1 59 171 238 448 491 492 493 288 446 490 505 547 704 752 755 828 992 1044 1194 1263 1155 870 825 532 394 356 455 386 413 258 164 43 39 63 58 27 45 57 38 21 17
0 0 0 9 18 17 20 51 65 65 230 385 341 376 491 534 540 725 780 821 995 1012 872 739 696 460 377 328 451 47 17 8 26 13 39 62 52 9 12 7 17 21 1
0 0 0 0 15 39 15 31 12 5 22 12 43 199 453 314 249 208 396 631 659 785 679 718 591 471 271 143 66 15 118 43 50 22 17 40 47 34 31 22 25 17 43
0 0 0 0 0 0 0 6 1 16 14 32 57 80 67 109 273 510 479 356 385 464 429 481 456 416 235 160 53 194 50 20 18 5 6 3 5 7 3 6 19 23 18
0 0 0 0 0 0 2 18 37 23 3 20 43 83 50 27 58 37 106 163 182 380 333 327 310 176 106 68 37 39 0 11 0 4 0 0 0 0 0 0 0 22 19
0 0 0 0 0 0 0 0 0 0 0 0 19 36 67 73 50 72 87 147 170 123 104 86 118 77 72 23 7 1 0 5 2 0 4 0 0 0 0 0 2 1 11
0 0 0 0 0 0 0 0 0 0 0 0 0 0 5 33 33 29 59 71 38 87 11 30 78 55 46 20 16 9 0 0 0 3 8 0 0 0 0 0 0 1 0
0 0 0 0 0 0 0 0 0 0 0 0 0 0 0 0 0 5 20 22 30 31 26 30 28 17 7 33 1 0 0 0 0 11 3 0 0 0 0 0 0 0 0
0 0 0 0 0 0 0 0 0 0 0 0 0 0 0 0 0 0 0 2 12 12 7 31 25 64 55 8 4 0 0 1 3 0 5 5 15 2 2 1 0 0 0
0 0 0 0 0 0 0 0 0 0 0 0 0 0 0 0 0 0 0 0 0 6 12 24 42 54 31 34 7 0 0 0 9 10 8 9 15 13 2 5 0 2 0
0 0 0 0 0 0 0 0 0 0 0 0 0 0 0 0 0 0 0 0 0 0 0 14 6 10 8 12 34 17 4 0 0 33 5 9 6 8 11 12 8 6 1
0 0 0 0 0 0 0 0 0 0 0 0 0 0 0 0 0 0 0 0 0 0 0 0 2 10 7 15 6 16 3 0 1 17 14 8 22 7 3 0 7 4 1
0 0 0 0 0 0 0 0 0 0 0 0 0 0 0 0 0 0 0 0 0 1 3 1 2 9 11 7 0 7 13 0 12 17 20 12 17 14 10 4 23 10 0
0 0 0 0 0 0 0 0 0 0 0 0 0 0 0 0 0 0 0 0 0 0 0 0 0 0 11 15 19 15 8 0 0 2 4 2 20 7 19 11 16 12 5
0 0 0 0 0 0 0 0 0 0 0 0 0 0 0 0 0 0 0 0 0 0 0 0 0 0 4 1 2 0 0 0 1 0 0 0 0 0 8 13 12 17 5

GFSMW_con_mucape_135.txt.gz
CAPE
0 0 0 0 0 0 0 0 0 170 1902 1882 1410 1234 1177 1295 1295 1049 956 1115 1190 673 564 427 182 157 224 89 146 231 197 19 67 1 7 12 35 70 179 109 69 9 17
0 0 0 0 0 0 0 0 0 0 1580 1800 1829 1721 1634 1371 1328 1223 868 1016 1228 892 593 640 394 258 147 109 112 178 73 60 9 30 8 6 3 4 60 93 45 11 9
0 0 0 0 0 0 0 0 0 0 1222 1873 1923 1990 1829 1786 1472 1233 903 898 1151 1058 1059 542 486 356 366 218 160 351 244 97 9 52 0 13 11 12 9 19 99 25 20
0 9 17 40 0 0 0 0 0 0 711 2303 2263 1982 1856 1819 1632 1540 1328 1122 1033 949 888 896 545 479 479 475 266 342 329 211 54 55 24 0 0 9 3 0 9 24 36
29 3 192 36 0 0 0 0 0 0 26 2265 2572 2382 2467 2389 2279 1782 1566 1183 1107 1283 1238 1105 527 540 591 596 433 440 407 310 199 97 59 8 0 1 3 2 0 2 0
39 117 73 285 70 0 0 0 0 0 0 2117 2731 2725 2669 2527 2409 2016 1716 1248 1401 1189 1248 1357 590 655 775 763 732 706 612 451 361 235 172 121 27 0 9 13 7 0 0
0 10 69 241 323 364 0 0 0 0 0 1697 2649 2870 2804 2745 2462 2139 1954 1388 1427 1082 1284 1522 953 920 1095 1117 1013 728 408 527 622 404 499 286 282 172 22 47 26 14 6
0 31 74 126 217 371 387 0 0 0 44 1515 2690 2966 2949 2604 2459 2278 2217 1702 1596 1342 1215 1697 1194 1252 1517 1420 937 995 706 476 467 402 189 282 369 290 172 62 57 33 28
0 8 145 189 233 528 494 931 650 75 322 1567 2789 2937 2882 2414 2403 2354 2375 1744 1474 1201 1291 1548 1776 1522 1360 1326 953 608 654 498 331 400 443 516 239 347 341 242 124 102 19
1 1 133 256 326 410 583 708 1036 1206 1224 1902 2672 2812 2644 2198 2077 2128 2111 1848 1555 1270 1664 2025 1901 1460 1375 1438 863 458 580 640 595 638 699 526 237 95 113 288 156 139 35
0 0 112 230 370 409 600 839 1095 1325 1546 1789 2365 2254 1910 1806 1791 1778 1744 1724 1364 1192 1375 849 1292 1430 1408 1131 726 604 620 683 614 509 426 300 240 56 67 35 52 35 32
0 0 0 183 402 419 589 397 365 483 492 552 934 934 919 943 1134 1163 1026 1045 1100 875 530 631 1056 1383 1287 900 729 640 602 522 593 464 302 209 167 51 50 62 26 16 17
0 0 0 21 153 267 342 283 276 183 301 416 460 398 174 296 253 497 671 574 468 381 316 438 492 883 877 592 548 656 436 329 349 418 372 165 51 52 52 35 39 8 6
0 0 0 0 0 86 177 105 100 30 15 23 124 129 4 12 30 78 190 281 282 208 249 362 373 474 555 448 393 318 349 227 88 35 60 46 38 48 58 52 25 25 14
0 0 0 0 0 2 3 6 8 4 0 0 13 64 94 68 59 18 67 69 154 275 303 313 389 395 397 340 327 69 18 9 0 26 27 36 6 20 35 48 27 23 10
0 1 0 0 0 0 0 3 0 22 55 112 87 40 53 107 137 102 145 94 79 101 169 160 250 155 301 288 158 84 79 17 22 9 12 0 17 4 0 0 0 0 0
0 0 0 0 0 0 0 0 1 16 59 88 96 37 8 3 25 49 61 87 104 107 141 193 258 247 243 155 57 56 36 10 3 0 1 0 0 0 0 0 0 0 0
0 0 0 0 0 0 0 0 0 0 0 0 0 0 25 17 33 40 29 45 116 106 139 63 113 127 105 81 44 31 8 1 0 0 0 0 0 0 0 0 0 0 0
0 0 0 0 0 0 0 0 0 0 0 0 0 0 0 0 2 39 28 36 55 31 18 61 53 57 23 31 16 23 1 0 0 0 0 0 0 0 0 0 0 0 0
0 0 0 0 0 0 0 0 0 0 0 0 0 0 0 0 0 0 0 0 18 22 30 28 23 35 18 19 4 5 6 0 0 0 0 3 3 2 3 1 1 0 0
0 0 0 0 0 0 0 0 0 0 0 0 0 0 0 0 0 0 0 0 0 5 13 3 3 3 11 2 23 24 6 3 0 0 0 7 5 1 4 11 7 1 0
0 0 0 0 0 0 0 0 0 0 0 0 0 0 0 0 0 0 0 0 0 0 0 0 1 9 4 1 1 3 11 0 0 0 0 0 15 8 14 10 11 4 0
0 0 0 0 0 0 0 0 0 0 0 0 0 0 0 0 0 0 0 0 0 0 0 0 0 0 3 0 4 1 3 0 2 9 0 10 21 13 16 7 2 0 0
0 0 0 0 0 0 0 0 0 0 0 0 0 0 0 0 0 0 0 0 0 0 0 0 1 3 0 0 1 3 0 1 0 0 1 0 5 1 8 7 9 2 3
0 0 0 0 0 0 0 0 0 0 0 0 0 0 0 0 0 0 0 0 0 0 0 0 0 0 1 2 9 15 26 1 3 0 0 0 0 4 9 1 9 13 0
0 0 0 0 0 0 0 0 0 0 0 0 0 0 0 0 0 0 0 0 0 0 0 0 0 0 0 0 4 11 9 7 1 0 0 0 0 0 3 3 0 2 0

GFSMW_con_mucape_138.txt.gz
CAPE
0 2 3 3 0 0 0 0 0 0 0 1 1139 2045 2328 2229 2133 1904 1724 1808 1455 1905 1706 1253 1312 831 800 659 482 441 745 776 506 305 234 416 135 144 342 612 408 125 16
4 10 13 5 11 8 17 0 0 0 0 0 545 1836 2336 2706 2225 2265 1964 1899 1616 1497 1885 1678 1436 612 679 732 559 832 759 610 705 449 264 147 5 102 319 391 339 133 74
19 19 16 30 33 32 203 103 0 0 0 0 110 1490 1798 2216 2194 2397 2014 2152 1616 1228 1567 1812 1635 860 894 581 514 1024 825 542 302 602 402 213 175 119 41 106 158 264 39
2 0 0 0 0 0 46 295 22 0 0 0 65 1387 1541 1530 1793 2030 2214 2199 1719 1460 1233 1592 1746 1499 1133 987 631 1123 989 811 286 665 419 407 298 278 145 12 45 57 137
0 0 0 0 0 1 4 16 0 0 0 0 1 1444 1688 1455 1888 1849 2272 2365 2024 1398 1105 1310 1418 1383 1082 1469 1220 1041 1489 1295 795 549 619 581 378 372 325 264 11 18 34
0 0 0 0 0 5 27 25 66 0 0 0 26 1745 2255 1860 1781 2305 2546 2457 2120 1458 1208 1267 1132 1323 1145 1157 877 891 1385 1289 1081 636 592 695 463 283 288 269 348 81 21
0 0 0 0 17 125 110 143 226 0 0 0 15 1909 2355 2368 2593 2367 2541 2422 2040 1449 1289 1377 1082 1139 1205 1120 956 726 814 1426 1295 1035 766 796 748 466 325 339 242 317 234
0 0 0 0 45 97 181 336 347 0 0 0 3 1576 2384 2246 2356 2457 2508 2611 2337 1747 1513 1242 1198 1087 1151 1071 909 657 887 1638 1855 1397 1006 1071 927 707 483 408 419 425 396
0 0 0 70 97 180 241 324 497 453 7 0 21 1271 2494 2320 2330 2413 2699 2642 2547 2049 1795 1368 1568 1122 1135 1065 1046 891 801 1404 1755 2035 1768 1408 1235 1228 809 653 480 483 514
0 0 0 0 162 124 427 539 533 659 782 988 957 1706 2288 2449 2490 2630 2731 2909 2793 2268 1847 1385 1515 1043 1301 1299 1265 1025 1079 1151 1088 1003 1420 1229 872 642 613 708 666 595 523
0 0 0 0 134 120 541 614 767 892 1234 1441 1916 1829 2036 2429 2604 2798 2713 2590 2450 2152 1848 1563 1570 1348 1601 1282 1207 1118 1282 857 751 446 512 529 385 456 397 452 546 463 513
0 0 0 0 21 160 422 518 658 823 1144 1482 1601 1792 1987 2004 2046 2266 2524 2462 2362 1803 1599 1520 1208 1134 1225 912 1164 1235 851 694 449 467 495 427 534 419 346 237 150 90 214
0 0 0 0 0 122 229 407 550 511 583 1026 1022 1196 1581 1690 1515 1589 1527 1455 1624 1499 1334 1349 1483 1554 1072 768 752 996 592 500 468 489 563 498 422 427 418 326 372 291 196
0 0 0 0 0 1 137 274 300 365 315 275 610 635 644 547 522 653 869 837 990 1054 953 977 847 541 425 407 666 650 460 449 396 389 461 375 360 317 315 309 254 167 192
0 0 0 0 0 0 14 116 122 128 43 36 115 418 197 227 221 136 184 229 277 474 807 725 470 227 191 288 419 242 495 290 234 194 72 203 145 166 204 220 202 234 122
0 0 0 0 0 0 0 1 15 30 4 0 0 0 6 20 65 49 34 40 74 68 101 123 72 64 88 128 142 154 156 217 114 80 77 0 27 18 12 12 14 24 36
0 0 0 0 0 0 0 0 0 0 0 0 0 9 0 3 2 2 14 10 13 58 55 27 55 70 61 61 62 185 87 71 52 80 44 28 16 0 8 0 3 0 0
0 0 0 0 0 0 0 0 0 0 0 0 29 7 40 32 33 49 75 123 81 108 106 62 59 90 106 76 92 14 70 23 37 11 4 16 2 0 0 0 0 0 0
0 0 0 0 0 0 0 0 0 0 0 0 0 0 11 57 41 51 41 80 45 53 142 57 59 60 123 100 93 41 41 22 6 7 0 0 0 0 0 0 0 0 0
0 0 0 0 0 0 0 0 0 0 0 0 0 0 0 0 0 9 16 1 19 43 52 16 12 18 45 31 77 70 24 18 15 8 0 0 0 0 6 2 3 5 1
0 0 0 0 0 0 0 0 0 0 0 0 0 0 0 0 0 0 0 0 7 6 11 12 25 5 14 38 9 20 11 6 10 1 0 0 0 0 5 10 7 4 0
0 0 0 0 0 0 0 0 0 0 0 0 0 0 0 0 0 0 0 0 0 0 0 7 1 0 2 2 13 7 5 20 19 14 11 0 2 0 8 21 14 15 10
0 0 0 0 0 0 0 0 0 0 0 0 0 0 0 0 0 0 0 0 0 0 0 0 0 0 0 5 5 10 9 11 12 8 0 1 12 4 6 22 6 19 8
0 0 0 0 0 0 0 0 0 0 0 0 0 0 0 0 0 0 0 0 0 0 0 0 0 1 1 0 0 0 1 5 4 3 2 0 1 0 4 2 1 4 5
0 0 0 0 0 0 0 0 0 0 0 0 0 0 0 0 0 0 0 0 0 0 0 0 0 0 3 3 1 5 8 1 9 2 0 0 0 0 0 2 1 1 6
0 0 0 0 0 0 0 0 0 0 0 0 0 0 0 0 0 0 0 0 0 0 0 0 0 0 0 0 1 10 14 10 12 5 7 2 1 1 1 0 0 0 2

GFSMW_con_mucape_141.txt.gz
CAPE
12 19 0 0 0 0 2 0 0 0 97 0 0 0 1561 2341 2675 2729 2673 3023 2347 2857 2939 2425 2280 2008 1822 1731 1862 1067 1136 1313 956 761 285 475 298 367 372 1060 592 279 235
13 9 1 0 0 0 0 0 0 0 0 40 0 0 0 2208 2404 2755 2645 2854 2733 2626 2876 2718 2330 2192 1910 1972 1819 1427 1185 1388 796 653 205 37 72 168 187 425 589 433 255
11 0 0 0 0 0 0 0 0 0 0 102 9 0 0 694 2208 2283 2533 2824 2967 2442 2914 2841 2574 2353 2025 1906 1816 1564 1460 1260 1221 969 551 335 231 219 69 390 244 431 241
1 0 0 0 0 0 0 0 0 0 0 64 357 11 0 233 1727 2230 2170 2854 2918 2486 2564 2779 2764 2273 1923 1982 1798 1629 1839 1553 1167 1256 957 1124 358 414 338 137 411 302 164
0 0 0 0 0 0 0 0 0 0 0 14 573 21 47 338 1574 2163 1723 2384 2816 2644 2187 2758 2770 2524 2014 2110 1864 1634 2139 1748 1098 915 1252 1300 813 668 356 395 41 91 85
0 0 0 0 0 0 0 0 0 0 3 0 620 322 58 552 2109 2035 1854 1551 2373 2513 1860 1920 2814 2905 2220 2258 2043 1688 2166 1843 1645 1079 1280 1109 950 550 440 288 664 146 45
0 0 0 0 0 0 1 0 0 0 11 44 564 183 172 24 1968 2110 2156 1116 1756 2441 1830 1512 2380 2790 2582 2289 2418 1908 2085 2087 1792 1891 1185 1324 995 591 445 488 286 463 317
0 0 0 0 0 0 6 16 6 28 0 119 233 224 202 56 1914 1908 1744 874 196 1310 2083 1728 1658 2485 2633 2249 2415 2093 1941 2192 2256 1802 1775 1282 1189 711 489 536 537 521 617
0 0 0 0 0 0 36 51 57 69 13 54 582 245 334 224 1851 2206 2370 895 80 4 1825 1761 1597 1581 2160 2153 1996 1752 1699 2023 2226 2261 2062 1801 1515 1365 1155 1028 761 429 567
0 0 0 0 0 0 44 84 159 161 199 227 263 625 282 956 2344 2027 1464 1246 1181 1271 1794 1721 1597 2007 1310 1642 1527 1305 1234 1331 2162 2220 2063 1865 1616 1417 1388 1370 759 715 683
0 0 0 0 0 0 27 130 169 321 394 413 571 667 429 764 1778 2044 1776 1266 1567 1835 2060 2107 1738 1856 1283 1383 1558 1246 1240 1206 1797 2153 1890 1810 1846 1571 1307 1250 930 580 672
0 0 0 0 0 0 45 107 184 133 178 383 767 792 935 583 724 822 1164 1757 1905 2341 2262 2293 1678 1387 1533 1517 1318 1195 953 1630 1781 1483 1364 1773 1520 1298 1329 1060 793 568 696
0 0 0 0 0 0 5 119 216 151 214 294 778 951 1217 641 1037 969 872 1240 1734 1735 1783 2049 1843 1140 1621 1691 1578 1220 1440 1436 1120 1071 891 956 1007 648 491 495 480 382 279
0 0 0 0 0 0 0 38 184 207 202 297 708 581 982 992 1048 1034 1055 1051 1059 1214 1434 1416 1392 1393 1381 1360 1405 1523 1371 1304 1052 958 606 478 386 509 420 411 420 269 268
0 0 0 0 0 0 0 2 18 109 129 193 187 347 757 486 397 523 866 871 744 819 977 1018 1156 1235 1201 1333 1480 1476 1361 1209 601 433 336 284 238 275 339 300 280 147 292
0 0 0 0 0 0 0 0 0 2 12 50 45 91 123 179 185 227 297 421 420 566 481 578 629 958 1104 1124 581 716 941 689 342 334 283 193 186 179 214 158 164 135 224
0 0 0 0 0 0 0 0 0 0 0 2 0 8 0 0 9 24 13 113 126 39 114 215 309 224 205 317 176 275 493 340 217 156 184 159 23 92 115 64 44 18 24
0 0 0 0 0 0 0 0 0 0 0 0 0 0 0 0 0 0 0 1 11 5 18 112 59 71 45 37 30 71 168 195 188 150 84 54 43 36 55 43 18 27 21
0 0 0 0 0 0 0 0 0 0 0 0 0 0 0 4 8 0 29 43 10 23 35 29 60 33 44 19 71 9 12 39 72 77 55 49 0 13 14 12 11 17 3
0 0 0 0 0 0 0 0 0 0 0 0 0 0 0 0 0 0 45 31 13 42 39 33 0 27 66 39 0 43 30 7 0 0 9 32 7 5 0 0 0 0 0
0 0 0 0 0 0 0 0 0 0 0 0 0 0 0 0 0 0 0 0 0 0 4 8 31 39 30 48 98 76 21 39 16 26 7 19 9 5 0 0 0 0 7
0 0 0 0 0 0 0 0 0 0 0 0 0 0 0 0 0 0 0 0 0 0 0 4 0 15 24 4 19 26 56 26 28 2 1 5 5 2 0 0 1 12 14
0 0 0 0 0 0 0 0 0 0 0 0 0 0 0 0 0 0 0 0 0 0 0 0 0 2 0 2 2 7 4 3 6 3 1 0 10 4 0 0 0 0 23
0 0 0 0 0 0 0 0 0 0 0 0 0 0 0 0 0 0 0 0 0 0 0 0 0 0 1 0 0 2 22 18 19 11 26 18 15 4 0 0 1 1 1
0 0 0 0 0 0 0 0 0 0 0 0 0 0 0 0 0 0 0 0 0 0 0 0 0 0 0 1 2 2 6 3 1 19 9 16 1 8 1 0 3 2 1
0 0 0 0 0 0 0 0 0 0 0 0 0 0 0 0 0 0 0 0 0 0 0 0 0 0 0 0 0 1 5 7 10 19 15 4 6 3 4 2 0 0 0

GFSMW_con_mucape_147.txt.gz
CAPE
0 0 0 0 0 0 0 0 0 0 0 0 0 0 0 0 0 0 0 252 955 1531 1912 1679 1868 1903 1196 900 916 717 766 690 441 548 506 559 537 317 319 309 318 233 148
0 0 0 0 0 0 0 0 0 0 0 0 0 0 0 0 0 0 0 0 111 1205 1362 1612 1691 1967 1392 926 946 731 766 715 549 510 422 554 383 225 241 165 220 190 74
0 0 0 0 0 0 0 0 0 0 0 0 0 0 0 0 0 0 0 0 0 151 1163 1288 1437 1702 1526 1051 1034 799 626 735 605 508 388 259 223 131 66 201 155 200 151
0 0 0 0 0 0 0 0 0 0 0 0 0 0 0 0 0 0 0 0 0 0 611 1141 1204 1395 1574 1131 1047 964 715 564 690 633 431 40 5 0 4 3 45 69 108
0 0 0 0 0 0 0 0 0 0 0 0 0 0 0 0 0 0 0 0 0 0 0 1012 980 968 1225 1172 997 1004 912 643 587 559 401 99 27 103 29 3 0 6 87
0 0 0 0 0 0 0 0 0 0 0 0 0 0 0 0 0 0 0 0 0 0 0 761 987 20 553 1010 949 1002 971 797 579 522 425 175 54 405 231 20 2 9 10
0 0 0 0 0 0 0 0 0 0 0 0 0 0 0 0 0 0 0 0 0 0 0 436 658 3 69 750 970 947 927 907 593 577 519 391 127 277 487 304 214 73 32
0 0 0 0 0 0 0 0 0 0 0 0 0 0 1 0 0 0 0 0 0 0 238 679 479 102 0 8 747 918 906 823 653 688 503 449 339 256 540 387 205 76 98
0 0 0 0 0 0 0 0 0 0 0 2 4 0 0 0 0 6 37 86 40 22 15 584 466 214 0 0 403 878 927 784 628 688 731 636 454 390 505 487 193 187 111
0 0 0 0 0 0 0 0 0 0 0 14 1 1 1 40 20 49 56 65 371 167 263 410 462 136 88 39 17 489 861 765 644 719 712 689 499 405 489 587 367 42 87
0 0 0 0 0 0 0 0 0 0 0 1 0 15 12 120 62 49 75 144 252 233 0 0 100 133 131 61 1 0 354 718 810 762 823 865 668 527 561 682 533 252 91
0 0 0 0 0 0 0 0 0 0 0 0 0 6 10 4 150 98 58 162 182 228 252 8 0 12 58 21 0 0 2 657 854 909 855 927 908 707 699 723 583 388 233
0 0 0 0 0 0 0 0 0 0 0 0 3 0 1 10 38 115 119 78 49 83 88 109 16 6 43 0 1 0 199 812 765 924 1013 1185 892 1022 863 710 669 536 391
0 0 0 0 0 0 0 0 0 0 0 0 2 10 3 77 86 6 1 0 19 20 46 45 18 71 38 51 77 199 360 852 1077 966 1127 1142 1192 1042 1053 950 860 666 553
0 0 0 0 0 0 0 0 0 0 0 0 0 2 0 0 16 39 59 32 52 5 81 63 34 117 32 77 266 254 453 663 856 929 776 949 1278 1326 1193 1097 841 780 701
0 0 0 0 0 0 0 0 0 0 0 0 0 0 0 0 0 0 5 3 89 179 170 92 69 118 135 44 188 141 489 624 826 713 572 640 916 1293 1244 1145 874 867 860
0 0 0 0 0 0 0 0 0 0 0 0 0 0 0 0 0 0 0 1 6 62 120 125 0 8 57 82 28 45 308 589 617 541 534 537 771 956 951 873 784 723 608
0 0 0 0 0 0 0 0 0 0 0 0 0 0 0 0 0 0 0 1 2 4 2 14 34 2 0 2 5 26 0 43 396 585 623 770 791 830 632 633 545 406 227
0 0 0 0 0 0 0 0 0 0 0 0 0 0 0 0 0 0 0 0 1 3 0 0 13 35 28 38 47 11 48 157 305 346 202 369 532 507 546 411 314 245 181
0 0 0 0 0 0 0 0 0 0 0 0 0 0 0 0 0 0 0 0 0 0 0 0 5 10 8 5 30 52 72 88 133 147 67 135 210 207 231 219 116 44 11
0 0 0 0 0 0 0 0 0 0 0 0 0 0 0 0 0 0 0 0 0 0 0 0 0 0 0 0 0 9 9 5 63 17 8 26 48 24 34 2 0 0 0
0 0 0 0 0 0 0 0 0 0 0 0 0 0 0 0 0 0 0 0 0 0 0 0 0 0 0 0 5 4 3 1 0 0 19 23 10 0 0 0 0 0 0
0 0 0 0 0 0 0 0 0 0 0 0 0 0 0 0 0 0 0 0 0 0 0 0 0 0 0 2 0 0 0 0 0 0 0 0 0 0 0 0 3 0 0
0 0 0 0 0 0 0 0 0 0 0 0 0 0 0 0 0 0 0 0 0 0 0 0 0 0 0 0 0 0 0 5 18 5 0 0 0 0 3 8 2 2 34
0 0 0 0 0 0 0 0 0 0 0 0 0 0 0 0 0 0 0 0 0 0 0 0 0 0 0 0 0 1 2 0 2 2 4 11 0 0 4 0 1 6 0
0 0 0 0 0 0 0 0 0 0 0 0 0 0 0 0 0 0 0 0 0 0 0 3 2 0 0 0 0 0 0 3 1 0 2 12 14 4 13 17 20 0 4